Time,TemperatureF,DewpointF,PressureIn,WindDirection,WindDirectionDegrees,WindSpeedMPH,WindSpeedGustMPH,Humidity,HourlyPrecipIn,Conditions,Clouds,dailyrainin,SoftwareType,DateUTC
2013-05-11 00:08:00,45.6,26.0,30.36,NNW,329,2.0,7.0,47,0.00,,,0.03,weatherlink.com 1.10,2013-05-11 06:08:00,
2013-05-11 00:23:00,45.3,25.0,30.37,NNW,331,3.0,5.0,45,0.00,,,0.00,weatherlink.com 1.10,2013-05-11 06:23:00,
2013-05-11 00:38:00,45.0,24.0,30.37,NW,304,6.0,7.0,44,0.00,,,0.00,weatherlink.com 1.10,2013-05-11 06:38:00,
2013-05-11 00:53:00,44.7,24.0,30.37,NW,320,0.0,6.0,44,0.00,,,0.00,weatherlink.com 1.10,2013-05-11 06:53:00,
2013-05-11 01:08:00,44.6,23.0,30.37,NW,313,1.0,6.0,43,0.00,,,0.00,weatherlink.com 1.10,2013-05-11 07:08:00,
2013-05-11 01:23:00,44.5,23.0,30.37,NW,307,2.0,9.0,42,0.00,,,0.00,weatherlink.com 1.10,2013-05-11 07:23:00,
2013-05-11 01:38:00,44.2,22.0,30.37,WNW,291,2.0,6.0,42,0.00,,,0.00,weatherlink.com 1.10,2013-05-11 07:38:00,
2013-05-11 01:53:00,44.1,22.0,30.37,WNW,294,3.0,9.0,41,0.00,,,0.00,weatherlink.com 1.10,2013-05-11 07:53:00,
2013-05-11 02:08:00,44.0,22.0,30.37,WNW,291,4.0,7.0,41,0.00,,,0.00,weatherlink.com 1.10,2013-05-11 08:08:00,
2013-05-11 02:23:00,43.6,22.0,30.37,WNW,299,0.0,8.0,42,0.00,,,0.00,weatherlink.com 1.10,2013-05-11 08:23:00,
2013-05-11 02:38:00,43.3,22.0,30.37,WNW,296,1.0,8.0,43,0.00,,,0.00,weatherlink.com 1.10,2013-05-11 08:38:00,
2013-05-11 02:53:00,43.0,22.0,30.37,NW,315,2.0,6.0,43,0.00,,,0.00,weatherlink.com 1.10,2013-05-11 08:53:00,
2013-05-11 03:08:00,41.8,23.0,30.37,NNW,341,0.0,2.0,47,0.00,,,0.00,weatherlink.com 1.10,2013-05-11 09:08:00,
2013-05-11 03:23:00,40.3,23.0,30.37,NW,326,1.0,2.0,51,0.00,,,0.00,weatherlink.com 1.10,2013-05-11 09:23:00,
2013-05-11 03:38:00,40.2,22.0,30.37,NW,320,1.0,6.0,49,0.00,,,0.00,weatherlink.com 1.10,2013-05-11 09:38:00,
2013-05-11 03:53:00,40.5,22.0,30.37,NW,304,2.0,5.0,48,0.00,,,0.00,weatherlink.com 1.10,2013-05-11 09:53:00,
2013-05-11 04:08:00,40.7,21.0,30.37,WNW,298,0.0,4.0,46,0.00,,,0.00,weatherlink.com 1.10,2013-05-11 10:08:00,
2013-05-11 04:23:00,40.5,21.0,30.38,NW,313,2.0,2.0,46,0.00,,,0.00,weatherlink.com 1.10,2013-05-11 10:23:00,
2013-05-11 04:38:00,39.5,22.0,30.38,NW,313,0.0,2.0,50,0.00,,,0.00,weatherlink.com 1.10,2013-05-11 10:38:00,
2013-05-11 04:53:00,39.4,22.0,30.37,NW,313,1.0,2.0,50,0.00,,,0.00,weatherlink.com 1.10,2013-05-11 10:53:00,
2013-05-11 05:08:00,39.6,22.0,30.37,NW,309,3.0,3.0,49,0.00,,,0.00,weatherlink.com 1.10,2013-05-11 11:08:00,
2013-05-11 05:23:00,40.0,22.0,30.37,WNW,297,2.0,4.0,48,0.00,,,0.00,weatherlink.com 1.10,2013-05-11 11:23:00,
2013-05-11 05:38:00,40.1,22.0,30.38,WNW,296,2.0,4.0,49,0.00,,,0.00,weatherlink.com 1.10,2013-05-11 11:38:00,
2013-05-11 05:53:00,40.4,22.0,30.38,WNW,296,1.0,3.0,48,0.00,,,0.00,weatherlink.com 1.10,2013-05-11 11:53:00,
2013-05-11 06:08:00,40.6,22.0,30.38,WNW,296,3.0,3.0,48,0.00,,,0.00,weatherlink.com 1.10,2013-05-11 12:08:00,
2013-05-11 06:23:00,41.0,22.0,30.39,WNW,296,2.0,3.0,48,0.00,,,0.00,weatherlink.com 1.10,2013-05-11 12:23:00,
2013-05-11 06:38:00,42.0,23.0,30.39,WNW,296,1.0,3.0,47,0.00,,,0.00,weatherlink.com 1.10,2013-05-11 12:38:00,
2013-05-11 06:53:00,43.4,24.0,30.40,NW,318,0.0,4.0,46,0.00,,,0.00,weatherlink.com 1.10,2013-05-11 12:53:00,
2013-05-11 07:08:00,42.8,28.0,30.40,North,5,0.0,2.0,57,0.00,,,0.00,weatherlink.com 1.10,2013-05-11 13:08:00,
2013-05-11 07:23:00,41.9,26.0,30.41,North,5,0.0,1.0,54,0.00,,,0.00,weatherlink.com 1.10,2013-05-11 13:23:00,
2013-05-11 07:39:00,42.7,26.0,30.41,NW,321,1.0,5.0,52,0.00,,,0.00,weatherlink.com 1.10,2013-05-11 13:39:00,
2013-05-11 07:54:00,43.4,25.0,30.41,NNE,13,1.0,4.0,48,0.00,,,0.00,weatherlink.com 1.10,2013-05-11 13:54:00,
2013-05-11 08:09:00,44.0,25.0,30.41,NW,317,2.0,4.0,47,0.00,,,0.00,weatherlink.com 1.10,2013-05-11 14:09:00,
2013-05-11 08:24:00,44.8,25.0,30.41,NNW,329,3.0,5.0,46,0.00,,,0.00,weatherlink.com 1.10,2013-05-11 14:24:00,
2013-05-11 08:39:00,45.4,23.0,30.41,NW,325,2.0,5.0,42,0.00,,,0.00,weatherlink.com 1.10,2013-05-11 14:39:00,
2013-05-11 08:54:00,46.1,25.0,30.41,ENE,58,0.0,5.0,44,0.00,,,0.00,weatherlink.com 1.10,2013-05-11 14:54:00,
2013-05-11 09:09:00,46.1,26.0,30.41,East,97,1.0,3.0,46,0.00,,,0.00,weatherlink.com 1.10,2013-05-11 15:09:00,
2013-05-11 09:24:00,47.0,27.0,30.41,NE,50,1.0,4.0,46,0.00,,,0.00,weatherlink.com 1.10,2013-05-11 15:24:00,
2013-05-11 09:39:00,47.7,27.0,30.41,East,81,1.0,3.0,45,0.00,,,0.00,weatherlink.com 1.10,2013-05-11 15:39:00,
2013-05-11 09:54:00,48.3,27.0,30.40,NNE,25,0.0,6.0,44,0.00,,,0.00,weatherlink.com 1.10,2013-05-11 15:54:00,
2013-05-11 10:09:00,49.6,29.0,30.40,ESE,113,2.0,7.0,45,0.00,,,0.00,weatherlink.com 1.10,2013-05-11 16:09:00,
2013-05-11 10:24:00,49.6,29.0,30.40,ENE,57,1.0,4.0,45,0.00,,,0.00,weatherlink.com 1.10,2013-05-11 16:24:00,
2013-05-11 10:39:00,51.5,29.0,30.40,North,355,4.0,4.0,42,0.00,,,0.00,weatherlink.com 1.10,2013-05-11 16:39:00,
2013-05-11 10:54:00,51.6,29.0,30.39,ESE,105,2.0,3.0,42,0.00,,,0.00,weatherlink.com 1.10,2013-05-11 16:54:00,
2013-05-11 11:09:00,51.1,28.0,30.39,NE,35,0.0,7.0,41,0.00,,,0.00,weatherlink.com 1.10,2013-05-11 17:09:00,
2013-05-11 11:24:00,52.8,31.0,30.39,ENE,65,2.0,3.0,43,0.00,,,0.00,weatherlink.com 1.10,2013-05-11 17:24:00,
2013-05-11 11:39:00,53.3,30.0,30.39,ENE,73,0.0,4.0,41,0.00,,,0.00,weatherlink.com 1.10,2013-05-11 17:39:00,
2013-05-11 11:54:00,53.4,29.0,30.39,East,98,0.0,4.0,40,0.00,,,0.00,weatherlink.com 1.10,2013-05-11 17:54:00,
2013-05-11 12:09:00,54.3,30.0,30.38,NNE,18,3.0,7.0,39,0.00,,,0.00,weatherlink.com 1.10,2013-05-11 18:09:00,
2013-05-11 12:24:00,55.1,30.0,30.38,NNW,339,1.0,5.0,39,0.00,,,0.00,weatherlink.com 1.10,2013-05-11 18:24:00,
2013-05-11 12:39:00,55.8,31.0,30.37,ESE,111,1.0,5.0,39,0.00,,,0.00,weatherlink.com 1.10,2013-05-11 18:39:00,
2013-05-11 12:54:00,55.7,29.0,30.36,ENE,74,2.0,5.0,36,0.00,,,0.00,weatherlink.com 1.10,2013-05-11 18:54:00,
2013-05-11 13:09:00,56.4,31.0,30.36,East,90,0.0,4.0,38,0.00,,,0.00,weatherlink.com 1.10,2013-05-11 19:09:00,
2013-05-11 13:24:00,56.9,31.0,30.35,NE,43,2.0,5.0,38,0.00,,,0.00,weatherlink.com 1.10,2013-05-11 19:24:00,
2013-05-11 13:39:00,57.6,32.0,30.34,East,86,2.0,5.0,38,0.00,,,0.00,weatherlink.com 1.10,2013-05-11 19:39:00,
2013-05-11 13:54:00,58.3,32.0,30.34,NE,34,4.0,4.0,37,0.00,,,0.00,weatherlink.com 1.10,2013-05-11 19:54:00,
2013-05-11 14:09:00,58.1,31.0,30.34,ENE,68,5.0,7.0,36,0.00,,,0.00,weatherlink.com 1.10,2013-05-11 20:09:00,
2013-05-11 14:24:00,57.9,32.0,30.33,ESE,109,2.0,4.0,37,0.00,,,0.00,weatherlink.com 1.10,2013-05-11 20:24:00,
2013-05-11 14:39:00,57.7,31.0,30.33,NNE,28,0.0,6.0,37,0.00,,,0.00,weatherlink.com 1.10,2013-05-11 20:39:00,
2013-05-11 14:54:00,59.2,31.0,30.32,NE,40,2.0,6.0,34,0.00,,,0.00,weatherlink.com 1.10,2013-05-11 20:54:00,
2013-05-11 15:09:00,59.7,33.0,30.31,NNE,24,2.0,8.0,36,0.00,,,0.00,weatherlink.com 1.10,2013-05-11 21:09:00,
2013-05-11 15:24:00,60.8,32.0,30.31,North,360,2.0,4.0,34,0.00,,,0.00,weatherlink.com 1.10,2013-05-11 21:24:00,
2013-05-11 15:39:00,60.1,31.0,30.30,East,93,5.0,7.0,34,0.00,,,0.00,weatherlink.com 1.10,2013-05-11 21:39:00,
2013-05-11 15:55:00,59.9,31.0,30.30,ESE,123,4.0,7.0,34,0.00,,,0.00,weatherlink.com 1.10,2013-05-11 21:55:00,
2013-05-11 16:10:00,60.0,32.0,30.29,ENE,75,1.0,3.0,35,0.00,,,0.00,weatherlink.com 1.10,2013-05-11 22:10:00,
2013-05-11 16:25:00,60.1,31.0,30.29,ESE,105,2.0,7.0,34,0.00,,,0.00,weatherlink.com 1.10,2013-05-11 22:25:00,
2013-05-11 16:40:00,59.8,30.0,30.28,SSW,210,1.0,5.0,33,0.00,,,0.00,weatherlink.com 1.10,2013-05-11 22:40:00,
2013-05-11 16:55:00,59.5,32.0,30.28,ENE,57,2.0,6.0,35,0.00,,,0.00,weatherlink.com 1.10,2013-05-11 22:55:00,
2013-05-11 17:10:00,59.4,31.0,30.28,SE,130,0.0,4.0,34,0.00,,,0.00,weatherlink.com 1.10,2013-05-11 23:10:00,
2013-05-11 17:25:00,59.8,32.0,30.28,East,81,1.0,3.0,35,0.00,,,0.00,weatherlink.com 1.10,2013-05-11 23:25:00,
2013-05-11 17:40:00,59.1,31.0,30.27,SE,128,0.0,3.0,34,0.00,,,0.00,weatherlink.com 1.10,2013-05-11 23:40:00,
2013-05-11 17:55:00,59.1,32.0,30.27,NE,54,0.0,3.0,36,0.00,,,0.00,weatherlink.com 1.10,2013-05-11 23:55:00,
2013-05-11 18:10:00,58.2,31.0,30.27,ENE,74,0.0,3.0,36,0.00,,,0.00,weatherlink.com 1.10,2013-05-12 00:10:00,
2013-05-11 18:25:00,57.8,31.0,30.26,NE,36,0.0,2.0,37,0.00,,,0.00,weatherlink.com 1.10,2013-05-12 00:25:00,
2013-05-11 18:40:00,56.7,31.0,30.26,East,90,0.0,3.0,38,0.00,,,0.00,weatherlink.com 1.10,2013-05-12 00:40:00,
2013-05-11 18:55:00,55.6,31.0,30.26,ENE,59,0.0,2.0,40,0.00,,,0.00,weatherlink.com 1.10,2013-05-12 00:55:00,
2013-05-11 19:10:00,55.1,32.0,30.25,ENE,73,0.0,2.0,41,0.00,,,0.00,weatherlink.com 1.10,2013-05-12 01:10:00,
2013-05-11 19:25:00,54.4,32.0,30.25,East,98,0.0,2.0,42,0.00,,,0.00,weatherlink.com 1.10,2013-05-12 01:25:00,
2013-05-11 19:40:00,53.5,31.0,30.25,East,98,0.0,0.0,43,0.00,,,0.00,weatherlink.com 1.10,2013-05-12 01:40:00,
2013-05-11 19:55:00,52.5,33.0,30.25,East,94,0.0,1.0,47,0.00,,,0.00,weatherlink.com 1.10,2013-05-12 01:55:00,
2013-05-11 20:10:00,50.4,31.0,30.25,East,94,0.0,0.0,48,0.00,,,0.00,weatherlink.com 1.10,2013-05-12 02:10:00,
2013-05-11 20:25:00,49.1,31.0,30.25,East,94,0.0,0.0,51,0.00,,,0.00,weatherlink.com 1.10,2013-05-12 02:25:00,
2013-05-11 20:40:00,48.5,31.0,30.25,East,94,0.0,0.0,52,0.00,,,0.00,weatherlink.com 1.10,2013-05-12 02:40:00,
2013-05-11 20:55:00,47.6,30.0,30.25,East,94,0.0,1.0,51,0.00,,,0.00,weatherlink.com 1.10,2013-05-12 02:55:00,
2013-05-11 21:10:00,47.0,30.0,30.25,East,94,0.0,2.0,51,0.00,,,0.00,weatherlink.com 1.10,2013-05-12 03:10:00,
2013-05-11 21:25:00,46.4,29.0,30.25,East,94,0.0,2.0,51,0.00,,,0.00,weatherlink.com 1.10,2013-05-12 03:25:00,
2013-05-11 21:40:00,45.9,29.0,30.25,NNW,331,1.0,3.0,52,0.00,,,0.00,weatherlink.com 1.10,2013-05-12 03:40:00,
2013-05-11 21:55:00,45.5,28.0,30.25,NNW,331,0.0,0.0,51,0.00,,,0.00,weatherlink.com 1.10,2013-05-12 03:55:00,
2013-05-11 22:10:00,45.4,28.0,30.25,NNW,331,0.0,1.0,51,0.00,,,0.00,weatherlink.com 1.10,2013-05-12 04:10:00,
2013-05-11 22:25:00,44.9,29.0,30.26,NNW,331,0.0,1.0,54,0.00,,,0.00,weatherlink.com 1.10,2013-05-12 04:25:00,
2013-05-11 22:40:00,44.1,29.0,30.26,NNW,331,0.0,1.0,55,0.00,,,0.00,weatherlink.com 1.10,2013-05-12 04:40:00,
2013-05-11 22:55:00,43.4,28.0,30.25,NNW,331,0.0,2.0,56,0.00,,,0.00,weatherlink.com 1.10,2013-05-12 04:55:00,
2013-05-11 23:10:00,42.9,29.0,30.25,NW,315,0.0,2.0,58,0.00,,,0.00,weatherlink.com 1.10,2013-05-12 05:10:00,
2013-05-11 23:25:00,42.8,29.0,30.25,NW,315,0.0,3.0,58,0.00,,,0.00,weatherlink.com 1.10,2013-05-12 05:25:00,
2013-05-11 23:40:00,42.7,29.0,30.25,NW,315,0.0,0.0,59,0.00,,,0.00,weatherlink.com 1.10,2013-05-12 05:40:00,
2013-05-11 23:55:00,42.8,30.0,30.24,NE,53,0.0,1.0,60,0.00,,,0.00,weatherlink.com 1.10,2013-05-12 05:55:00,